TimeCDT,TemperatureF,Dew PointF,Humidity,Sea Level PressureIn,VisibilityMPH,Wind Direction,Wind SpeedMPH,Gust SpeedMPH,PrecipitationIn,Events,Conditions,WindDirDegrees,DateUTC
12:56 AM,32.0,28.0,85,30.03,10.0,WSW,3.5,-,N/A,,Clear,250,2013-04-24 05:56:00
1:56 AM,30.9,27.0,85,30.01,10.0,WSW,4.6,-,N/A,,Scattered Clouds,250,2013-04-24 06:56:00
2:56 AM,30.0,27.0,88,29.98,8.0,Calm,Calm,-,N/A,,Overcast,0,2013-04-24 07:56:00
3:56 AM,30.9,28.0,89,29.99,6.0,NW,10.4,-,0.00,Snow,Light Snow,320,2013-04-24 08:56:00
4:56 AM,33.1,30.9,92,29.94,7.0,North,8.1,-,0.00,,Overcast,10,2013-04-24 09:56:00
5:06 AM,33.8,30.2,87,29.89,7.0,NNE,6.9,-,N/A,,Overcast,20,2013-04-24 10:06:00
5:28 AM,33.8,30.2,87,29.89,8.0,NNW,10.4,-,N/A,,Overcast,340,2013-04-24 10:28:00
5:56 AM,32.0,30.9,96,29.93,8.0,NNW,6.9,-,N/A,,Overcast,340,2013-04-24 10:56:00
6:56 AM,32.0,28.9,88,29.94,10.0,WSW,3.5,-,N/A,,Mostly Cloudy,250,2013-04-24 11:56:00
7:56 AM,33.1,30.0,89,29.93,10.0,WSW,5.8,-,N/A,,Clear,240,2013-04-24 12:56:00
8:56 AM,33.1,28.9,85,29.94,10.0,WSW,10.4,-,N/A,,Partly Cloudy,250,2013-04-24 13:56:00
9:09 AM,33.8,28.4,81,29.89,10.0,West,13.8,-,N/A,,Mostly Cloudy,270,2013-04-24 14:09:00
9:56 AM,36.0,28.9,76,29.93,10.0,West,12.7,-,N/A,,Scattered Clouds,280,2013-04-24 14:56:00
10:56 AM,39.0,28.9,67,29.93,10.0,West,12.7,-,N/A,,Clear,280,2013-04-24 15:56:00
11:56 AM,41.0,28.0,60,29.94,10.0,WNW,18.4,-,N/A,,Clear,300,2013-04-24 16:56:00
12:56 PM,42.1,28.9,60,29.93,10.0,WNW,18.4,-,N/A,,Clear,300,2013-04-24 17:56:00
1:56 PM,39.9,30.0,68,29.93,10.0,NW,18.4,24.2,N/A,,Overcast,310,2013-04-24 18:56:00
2:14 PM,39.2,28.4,65,29.88,10.0,NW,21.9,26.5,N/A,,Mostly Cloudy,310,2013-04-24 19:14:00
2:27 PM,33.8,28.4,81,29.90,1.8,NW,25.3,38.0,0.00,Snow,Light Snow,310,2013-04-24 19:27:00
2:33 PM,33.8,28.4,81,29.91,0.8,NW,24.2,36.8,0.00,Snow,Light Snow,310,2013-04-24 19:33:00
2:45 PM,33.8,28.4,81,29.91,0.5,NW,24.2,36.8,0.00,Fog-Snow,Snow,320,2013-04-24 19:45:00
2:49 PM,33.8,28.4,81,29.91,1.0,NW,25.3,33.4,0.00,Snow,Light Snow,320,2013-04-24 19:49:00
2:52 PM,33.8,28.4,81,29.91,3.0,NW,24.2,33.4,0.00,Snow,Light Snow,320,2013-04-24 19:52:00
2:56 PM,35.1,28.9,78,29.97,9.0,NW,27.6,36.8,0.00,Snow,Light Snow,320,2013-04-24 19:56:00
3:51 PM,35.6,24.8,65,29.94,10.0,NW,26.5,39.1,0.00,,Mostly Cloudy,320,2013-04-24 20:51:00
3:56 PM,36.0,25.0,64,29.99,10.0,NW,28.8,36.8,0.00,,Mostly Cloudy,320,2013-04-24 20:56:00
4:56 PM,35.1,21.0,57,30.01,10.0,NW,27.6,36.8,N/A,,Partly Cloudy,310,2013-04-24 21:56:00
5:56 PM,32.0,19.9,61,30.04,10.0,NW,24.2,34.5,N/A,,Overcast,310,2013-04-24 22:56:00
6:56 PM,30.0,21.0,69,30.06,10.0,NW,26.5,33.4,0.00,,Mostly Cloudy,320,2013-04-24 23:56:00
7:56 PM,30.0,19.0,64,30.07,10.0,NW,21.9,-,N/A,,Overcast,320,2013-04-25 00:56:00
8:56 PM,28.9,19.9,69,30.09,10.0,NW,13.8,-,N/A,,Mostly Cloudy,310,2013-04-25 01:56:00
9:56 PM,27.0,19.9,75,30.11,10.0,WNW,9.2,-,N/A,,Partly Cloudy,300,2013-04-25 02:56:00
10:56 PM,26.1,19.9,78,30.12,10.0,WNW,9.2,-,N/A,,Clear,290,2013-04-25 03:56:00
11:56 PM,25.0,19.9,81,30.11,10.0,West,8.1,-,N/A,,Clear,280,2013-04-25 04:56:00